Tracking 19572 objects as of 23-Feb-2019
HD Live streaming from Space Station
objects crossing your sky now

COSMOS 1818 COOLANT

Track COSMOS 1818 COOLANT now!
10-day predictions


NORAD ID: 34176
Int'l Code: 1987-011G
Perigee: 770.7 km
Apogee: 801.0 km
Inclination: 65.0 °
Period: 100.4 minutes
Semi major axis: 7156 km
RCS: 0.0034 m2 (small)
Launch date: February 1, 1987
Source: Commonwealth of Independent States (former USSR) (CIS)
Launch site: TYURATAM MISSILE AND SPACE COMPLEX (TTMTR)

Note: This is SATELLITE DEBRIS
aabbcc
Your satellite tracking list
Your tracking list is empty




NASA's NSSDC Master Catalog

Two Line Element Set (TLE):
1 34176U 87011G   19052.91364780  .00000019  00000-0  42845-4 0  9990
2 34176  65.0154 152.2123 0021210 266.5924 209.1109 14.33908614545229
Source of the keplerian elements: AFSPC